Date String (YYYY-MM-DD hh:mm:ss) UTC,Instrument flags,absolute air pressure of the measurement (hPa),sample flow rate (lpm),inlet stack bypass flow (lpm),air temperature of the measurement (°C),ambient temperature measured by the external sensor (°C),aerosol sample conditioner tube jacket temperature (°C),OPC LED temperature (°C),internal box temperature (°C),relative humidity of the measurement (%),span deviation,mass concentration of particles derived from Lorenz-Mie calculation of OPC scattering (μg/m³),mass concentration of particles derived from Lorenz-Mie calculation of OPC scattering (μg/m³),mass concentration of particles derived from Lorenz-Mie calculation of OPC scattering (μg/m³)
DateTimeUTC,F1_M11,P_M11,Q1_M11,Q2_M11,T1_M11,T2_M11,T3_M11,T4_M11,T5_M11,U1_M11,ZSPAN_M11,X2_M11,X0_M11,X1_M11
2023-06-25 19:00:00,SystemResetWarning,0834.1,5.00,000.00,029.2,024.7,000.0,037.7,030.5,30.0,0000.0,0004.86,0011.62,0003.89
2023-06-25 19:01:00,SystemResetWarning,0834.1,5.01,000.00,029.1,025.2,000.0,037.7,030.4,30.3,0000.0,0004.77,0011.16,0003.85
2023-06-25 19:02:00,SystemResetWarning,0834.1,4.99,000.00,029.1,025.7,000.0,037.7,030.4,30.8,0000.0,0004.75,0011.48,0003.82
2023-06-25 19:03:00,SystemResetWarning,0834.1,5.00,000.00,029.1,026.1,000.0,037.7,030.5,31.2,0000.0,0004.74,0012.28,0003.80
2023-06-25 19:04:00,SystemResetWarning,0834.1,5.00,000.00,029.1,026.5,000.0,037.7,030.6,30.0,0000.0,0004.73,0012.53,0003.77
2023-06-25 19:05:00,SystemResetWarning,0834.1,4.99,000.00,029.1,026.8,000.0,037.7,030.6,29.9,0000.0,0004.69,0012.25,0003.76
2023-06-25 19:06:00,SystemResetWarning,0834.1,4.99,000.00,029.2,027.1,000.0,037.7,030.7,29.8,0000.0,0004.64,0012.04,0003.74
2023-06-25 19:07:00,SystemResetWarning,0834.1,5.01,000.00,029.2,027.4,000.0,037.7,030.8,29.1,0000.0,0004.60,0012.25,0003.71
2023-06-25 19:08:00,SystemResetWarning,0834.1,5.00,000.00,029.2,027.6,000.0,037.7,030.8,28.3,0000.0,0004.58,0012.28,0003.69
2023-06-25 19:09:00,SystemResetWarning,0834.1,4.99,000.00,029.2,027.7,000.0,037.7,030.8,29.2,0000.0,0004.60,0012.11,0003.69
2023-06-25 19:10:00,SystemResetWarning,0834.1,5.00,000.00,029.3,027.9,000.0,037.7,030.9,28.9,0000.0,0004.59,0012.36,0003.70
2023-06-25 19:11:00,SystemResetWarning,0834.1,4.99,000.00,029.3,027.7,000.0,037.8,031.0,29.1,0000.0,0004.60,0012.12,0003.70
2023-06-25 19:12:00,SystemResetWarning,0834.1,5.00,000.00,029.3,025.8,000.0,037.7,031.0,28.8,0000.0,0004.63,0012.19,0003.71
2023-06-25 19:13:00,SystemResetWarning,0834.0,5.00,000.00,029.3,024.3,000.0,037.6,030.9,29.4,0000.0,0004.62,0011.73,0003.73
2023-06-25 19:14:00,SystemResetWarning,0834.1,5.01,000.00,029.3,024.2,000.0,037.6,030.7,28.8,0000.0,0004.63,0011.19,0003.72
2023-06-25 19:15:00,SystemResetWarning,0834.0,5.00,000.00,029.1,024.6,000.0,037.6,030.3,29.6,0000.0,0004.65,0010.60,0003.73
2023-06-25 19:16:00,SystemResetWarning,0834.0,5.00,000.00,029.0,025.1,000.0,037.6,030.3,30.6,0000.0,0004.71,0011.48,0003.72
2023-06-25 19:17:00,SystemResetWarning,0834.0,5.00,000.00,029.0,025.6,000.0,037.6,030.3,29.6,0000.0,0004.76,0011.82,0003.73
2023-06-25 19:18:00,SystemResetWarning,0834.0,5.00,000.00,029.0,026.1,000.0,037.6,030.5,29.8,0000.0,0004.75,0011.76,0003.73
2023-06-25 19:19:00,SystemResetWarning,0834.0,4.99,000.00,029.0,026.5,000.0,037.6,030.5,29.8,0000.0,0004.77,0011.84,0003.74
2023-06-25 19:20:00,SystemResetWarning,0834.0,4.99,000.00,029.1,026.8,000.0,037.6,030.6,29.4,0000.0,0004.78,0012.25,0003.75
2023-06-25 19:21:00,SystemResetWarning,0834.0,5.00,000.00,029.1,027.1,000.0,037.6,030.6,29.6,0000.0,0004.75,0012.10,0003.75
2023-06-25 19:22:00,SystemResetWarning,0833.9,5.00,000.00,029.1,027.3,000.0,037.6,030.7,30.1,0000.0,0004.70,0011.97,0003.74
2023-06-25 19:23:00,SystemResetWarning,0833.9,4.99,000.00,029.1,027.5,000.0,037.6,030.8,30.0,0000.0,0004.65,0011.86,0003.71
2023-06-25 19:24:00,SystemResetWarning,0834.0,4.99,000.00,029.2,027.7,000.0,037.7,030.8,30.7,0000.0,0004.65,0012.21,0003.69
2023-06-25 19:25:00,SystemResetWarning,0833.9,5.00,000.00,029.2,027.9,000.0,037.7,030.9,30.5,0000.0,0004.63,0012.05,0003.68
2023-06-25 19:26:00,SystemResetWarning,0833.9,5.01,000.00,029.3,028.0,000.0,037.7,030.9,30.2,0000.0,0004.58,0011.84,0003.66
2023-06-25 19:27:00,SystemResetWarning,0833.8,4.99,000.00,029.3,026.9,000.0,037.7,031.0,30.0,0000.0,0004.48,0011.28,0003.64
2023-06-25 19:28:00,SystemResetWarning,0833.8,5.01,000.00,029.3,025.4,000.0,037.6,031.0,30.7,0000.0,0004.47,0011.03,0003.62
2023-06-25 19:29:00,SystemResetWarning,0833.9,5.01,000.00,029.3,025.3,000.0,037.6,030.8,30.5,0000.0,0004.47,0010.81,0003.60
2023-06-25 19:30:00,SystemResetWarning,0833.9,5.01,000.00,029.2,025.6,000.0,037.6,030.6,30.8,0000.0,0004.44,0010.97,0003.58
2023-06-25 19:31:00,SystemResetWarning,0833.8,5.00,000.00,029.2,026.0,000.0,037.6,030.6,30.8,0000.0,0004.42,0010.64,0003.56
2023-06-25 19:32:00,SystemResetWarning,0833.9,5.00,000.00,029.2,026.4,000.0,037.7,030.6,30.5,0000.0,0004.44,0010.60,0003.54
2023-06-25 19:33:00,SystemResetWarning,0833.8,5.00,000.00,029.2,026.7,000.0,037.7,030.7,30.5,0000.0,0004.48,0010.70,0003.53
2023-06-25 19:34:00,SystemResetWarning,0833.9,4.98,000.00,029.2,027.1,000.0,037.7,030.7,30.9,0000.0,0004.50,0010.81,0003.53
2023-06-25 19:35:00,SystemResetWarning,0833.9,4.99,000.00,029.2,027.3,000.0,037.7,030.8,31.0,0000.0,0004.43,0010.61,0003.52
2023-06-25 19:36:00,SystemResetWarning,0833.9,5.02,000.00,029.3,027.5,000.0,037.7,030.9,30.5,0000.0,0004.41,0010.92,0003.50
2023-06-25 19:37:00,SystemResetWarning,0833.9,5.01,000.00,029.3,027.7,000.0,037.7,030.9,30.0,0000.0,0004.39,0011.04,0003.49
2023-06-25 19:38:00,SystemResetWarning,0833.8,4.99,000.00,029.3,027.8,000.0,037.8,031.0,30.0,0000.0,0004.39,0010.70,0003.47
2023-06-25 19:39:00,SystemResetWarning,0833.8,5.00,000.00,029.4,026.3,000.0,037.7,031.0,30.5,0000.0,0004.33,0010.81,0003.46
2023-06-25 19:40:00,SystemResetWarning,0833.8,5.01,000.00,029.3,025.2,000.0,037.7,031.0,28.9,0000.0,0004.29,0011.28,0003.45
2023-06-25 19:41:00,SystemResetWarning,0833.8,5.01,000.00,029.3,025.3,000.0,037.6,030.7,29.2,0000.0,0004.28,0011.13,0003.43
2023-06-25 19:42:00,SystemResetWarning,0833.8,5.02,000.00,029.2,025.6,000.0,037.7,030.6,29.6,0000.0,0004.27,0011.12,0003.44
2023-06-25 19:43:00,SystemResetWarning,0833.8,4.99,000.00,029.2,026.1,000.0,037.7,030.6,30.0,0000.0,0004.24,0011.07,0003.44
2023-06-25 19:44:00,SystemResetWarning,0833.8,5.00,000.00,029.2,026.5,000.0,037.7,030.7,30.6,0000.0,0004.23,0010.91,0003.45
2023-06-25 19:45:00,SystemResetWarning,0833.8,5.00,000.00,029.2,026.8,000.0,037.7,030.7,30.8,0000.0,0004.24,0010.71,0003.47
2023-06-25 19:46:00,SystemResetWarning,0833.8,4.98,000.00,029.2,027.1,000.0,037.7,030.8,29.9,0000.0,0004.25,0010.71,0003.49
2023-06-25 19:47:00,SystemResetWarning,0833.8,5.00,000.00,029.3,027.4,000.0,037.7,030.8,29.8,0000.0,0004.28,0010.39,0003.51
2023-06-25 19:48:00,SystemResetWarning,0833.8,5.01,000.00,029.3,027.6,000.0,037.8,030.9,30.1,0000.0,0004.27,0010.27,0003.52
2023-06-25 19:49:00,SystemResetWarning,0833.8,5.01,000.00,029.3,027.8,000.0,037.8,031.0,29.4,0000.0,0004.30,0010.37,0003.52
2023-06-25 19:50:00,SystemResetWarning,0833.8,4.97,000.00,029.4,026.6,000.0,037.7,031.0,30.1,0000.0,0004.31,0010.53,0003.52
2023-06-25 19:51:00,SystemResetWarning,0833.8,5.02,000.00,029.3,025.2,000.0,037.7,031.0,30.5,0000.0,0004.30,0010.29,0003.52
2023-06-25 19:52:00,SystemResetWarning,0833.8,5.00,000.00,029.3,025.2,000.0,037.7,030.8,31.1,0000.0,0004.28,0010.22,0003.54
2023-06-25 19:53:00,SystemResetWarning,0833.7,5.00,000.00,029.2,025.5,000.0,037.7,030.6,30.2,0000.0,0004.28,0010.23,0003.54
2023-06-25 19:54:00,SystemResetWarning,0833.7,5.01,000.00,029.2,025.9,000.0,037.7,030.5,29.8,0000.0,0004.26,0009.87,0003.53
2023-06-25 19:55:00,SystemResetWarning,0833.7,5.00,000.00,029.2,026.3,000.0,037.7,030.6,29.3,0000.0,0004.23,0010.21,0003.53
2023-06-25 19:56:00,SystemResetWarning,0833.8,4.99,000.00,029.2,026.7,000.0,037.7,030.7,29.1,0000.0,0004.21,0010.34,0003.52
2023-06-25 19:57:00,SystemResetWarning,0833.7,5.00,000.00,029.2,027.1,000.0,037.7,030.8,29.5,0000.0,0004.23,0010.42,0003.51
2023-06-25 19:58:00,SystemResetWarning,0833.7,5.00,000.00,029.2,027.4,000.0,037.7,030.8,29.5,0000.0,0004.25,0010.63,0003.51
2023-06-25 19:59:00,SystemResetWarning,0833.7,5.01,000.00,029.3,027.6,000.0,037.7,030.9,30.6,0000.0,0004.27,0010.67,0003.50
